Location: The Jewett Observatory
(46.7288°N, 117.1525°W)
Time: 07:09:25
(UTC-07:00)

Amateur Radio Satellites - All Passes

Search period start: 31 May 2016 06:39
Search period end: 01 June 2016 06:39
Location: The Jewett Observatory, 46.7288°N, 117.1525°W

Satellite Date Start Highest point End Downlink Frequencies (MHz)
Time Altitude Azimuth
HORYU 2 31 May 06:46:26 06:50:13 28° 295° (WNW) 06:53:59 437.375
SO-50 31 May 06:48:24 06:52:21 25° 36° (NE) 06:56:13 436.795
NOAA 18 31 May 06:52:16 06:57:39 54° 101° (E) 07:03:01 137.9125
Cosmos 2504 31 May 07:02:41 07:06:52 15° 287° (WNW) 07:11:10 435.465 / 435.565
BRITE-PL 31 May 07:02:54 07:07:58 72° 101° (E) 07:12:36 437.365/2234.400
CUTE-I 31 May 07:06:01 07:11:21 61° 102° (ESE) 07:16:40 437.470
GOMX 1 31 May 07:07:01 07:11:17 36° 96° (E) 07:15:17 467.674
AO-85 31 May 07:07:04 07:11:51 31° 321° (NW) 07:16:28 145.980
HO-68 31 May 07:12:39 07:14:45 11° 83° (E) 07:16:51 435.675
AIST 1 31 May 07:17:10 07:21:05 31° 73° (ENE) 07:24:56
LilacSat-2 31 May 07:21:58 07:25:47 82° 285° (WNW) 07:29:34 437.200
STRAND 1 31 May 07:33:41 07:38:40 55° 259° (W) 07:43:43 437.568
DOVE 4 31 May 07:35:23 07:39:17 32° 95° (E) 07:43:03 437.250
Cosmos 2499 31 May 07:36:22 07:43:02 24° 60° (ENE) 07:49:50 435.465 / 435.565
CINEMA 3 31 May 07:38:52 07:39:07 10° 87° (E) 07:39:23 145.822/145.860
PRISM 31 May 07:40:37 07:44:25 36° 68° (ENE) 07:48:15 437.425
NOAA 15 31 May 07:41:36 07:46:44 50° 291° (WNW) 07:51:48 137.62
SEEDS 31 May 07:56:54 07:58:34 12° 88° (E) 08:00:14 437.485
Cubesat XI-IV 31 May 08:01:11 08:06:21 49° 292° (WNW) 08:11:29 437.490
CANX-2 31 May 08:01:16 08:04:32 21° 92° (E) 08:07:47 2200.000
AO-7 31 May 08:04:33 08:08:11 14° 325° (NW) 08:11:49 29.400- 29.500
PCSat 31 May 08:11:15 08:15:15 21° 107° (ESE) 08:19:16 145.827
CUTE 1.7 + AOD 2 31 May 08:27:15 08:31:09 33° 96° (E) 08:35:03 437.475
SO-50 31 May 08:28:35 08:33:16 65° 237° (WSW) 08:37:47 436.795
AAUSAT CUBESAT 2 31 May 08:32:48 08:35:32 17° 91° (E) 08:38:16 437.432
NOAA 18 31 May 08:33:33 08:38:00 26° 299° (WNW) 08:42:28 137.9125
COMPASS 1 31 May 08:34:01 08:37:17 21° 93° (E) 08:40:31 437.405
GONETS M04 31 May 08:34:39 08:43:23 70° 78° (ENE) 08:52:02
O/OREOS (USA 219) 31 May 08:37:40 08:41:52 38° 107° (ESE) 08:46:05 437.305
BRITE-PL 31 May 08:42:35 08:45:47 17° 302° (WNW) 08:48:51 437.365/2234.400
GOMX 1 31 May 08:45:23 08:49:14 26° 296° (WNW) 08:52:52 467.674
CUTE-I 31 May 08:46:54 08:50:59 22° 300° (WNW) 08:55:02 437.470
Oscar 11 31 May 08:50:07 08:51:10 11° 87° (E) 08:52:13 145.826/435.025
AO-85 31 May 08:51:56 08:53:57 12° 343° (NNW) 08:55:56 145.980
AIST 1 31 May 08:54:58 08:58:34 26° 271° (W) 09:02:07
HO-68 31 May 08:56:45 09:03:54 63° 103° (ESE) 09:11:01 435.675
ANTELSAT 31 May 09:01:31 09:04:12 16° 61° (ENE) 09:06:53 437.575/2403.000
AUBIESAT-1 31 May 09:09:36 09:12:51 55° 106° (ESE) 09:16:09 437.475
ZACube-1 31 May 09:11:05 09:13:43 16° 91° (E) 09:16:22 437.345
CINEMA 3 31 May 09:12:41 09:16:52 79° 284° (WNW) 09:21:01 145.822/145.860
DOVE 4 31 May 09:13:18 09:16:55 26° 295° (WNW) 09:20:24 437.250
PRISM 31 May 09:16:29 09:19:49 23° 266° (W) 09:23:12 437.425
M-CUBED/EXP-1 PRIME 31 May 09:20:04 09:23:21 84° 288° (WNW) 09:26:38 437.505
Cosmos 2499 31 May 09:28:38 09:37:21 90° 75° (ENE) 09:46:16 435.465 / 435.565
SEEDS 31 May 09:30:31 09:34:47 73° 286° (WNW) 09:39:02 437.485
CUBEBUG 2 31 May 09:33:55 09:38:02 56° 100° (E) 09:42:12 437.445
CANX-2 31 May 09:36:31 09:40:34 41° 290° (WNW) 09:44:37 2200.000
CUSAT 1 31 May 09:37:18 09:40:24 13° 73° (ENE) 09:43:39 437.405
BEESAT 3 31 May 09:42:23 09:44:05 12° 110° (ESE) 09:45:47 437.485
FUNcube-1 31 May 09:45:55 09:49:46 34° 97° (E) 09:53:40 145.935
PCSat 31 May 09:52:46 09:58:09 66° 306° (NW) 10:03:35 145.827
UWE-3 31 May 09:53:32 09:57:43 64° 101° (E) 10:01:57 435.000/436.395/437.385
UNISAT 6 31 May 09:55:12 09:59:24 53° 72° (ENE) 10:03:35 437.425
TIGRISAT 31 May 10:01:14 10:05:28 58° 73° (ENE) 10:09:40 435.000
DELFI C3 31 May 10:02:32 10:06:05 29° 95° (E) 10:09:36 145.870
CUTE 1.7 + AOD 2 31 May 10:03:18 10:06:53 26° 294° (WNW) 10:10:28 437.475
AAUSAT CUBESAT 2 31 May 10:07:14 10:11:19 50° 288° (WNW) 10:15:22 437.432
COMPASS 1 31 May 10:09:02 10:12:59 39° 290° (WNW) 10:16:55 437.405
O/OREOS (USA 219) 31 May 10:17:27 10:21:22 28° 306° (NW) 10:25:17 437.305
HUMSAT D 31 May 10:18:03 10:21:13 21° 93° (E) 10:24:24 437.325/437.525
Oscar 11 31 May 10:23:31 10:27:54 83° 283° (WNW) 10:32:15 145.826/435.025
QB50P1 31 May 10:24:50 10:28:09 23° 65° (ENE) 10:31:27 145.935-145.965
POPSAT HIP 1 31 May 10:24:53 10:28:10 22° 64° (ENE) 10:31:27 437.405
QB50P2 31 May 10:28:28 10:31:57 25° 66° (ENE) 10:35:26 145.880/145.840
POLYITAN 1 31 May 10:30:56 10:34:26 26° 66° (ENE) 10:37:57 437.675
GONETS M04 31 May 10:32:26 10:39:26 29° 279° (W) 10:46:27
AO-85 31 May 10:36:15 10:36:47 10° 9° (N) 10:37:20 145.980
ANTELSAT 31 May 10:36:16 10:40:31 58° 259° (W) 10:44:44 437.575/2403.000
NANOSAT C BR1 31 May 10:40:20 10:44:01 30° 67° (ENE) 10:47:42 145.865
HO-68 31 May 10:45:05 10:51:11 31° 303° (WNW) 10:57:17 435.675
AUBIESAT-1 31 May 10:45:48 10:47:00 12° 304° (NW) 10:48:11 437.475
ZACube-1 31 May 10:46:13 10:50:20 53° 288° (WNW) 10:54:30 437.345
BEESAT 2 31 May 10:51:17 10:54:56 36° 119° (ESE) 10:58:37 435.950
ESTCUBE 1 31 May 11:07:11 11:09:41 14° 89° (E) 11:12:11 437.505/2401.250
CUBEBUG 2 31 May 11:11:41 11:14:16 16° 298° (WNW) 11:16:53 437.445
VELOX 1 31 May 11:13:15 11:13:23 10° 87° (E) 11:13:31 145.980
CUSAT 1 31 May 11:13:57 11:20:46 62° 94° (E) 11:28:39 437.405
DUCHIFAT 1 31 May 11:16:14 11:20:25 67° 73° (ENE) 11:24:35 145.980
JAS-2 31 May 11:16:21 11:22:41 29° 57° (ENE) 11:29:07 435.910
BUGSAT 1 31 May 11:16:55 11:20:40 33° 68° (ENE) 11:24:24 437.445
BEESAT 3 31 May 11:17:17 11:21:14 74° 309° (NW) 11:25:12 437.485
FUNcube-1 31 May 11:22:27 11:25:54 25° 294° (WNW) 11:29:24 145.935
Cosmos 2499 31 May 11:23:13 11:29:23 22° 282° (WNW) 11:35:40 435.465 / 435.565
UWE-3 31 May 11:31:24 11:33:44 15° 299° (WNW) 11:36:05 435.000/436.395/437.385
UKube-1 31 May 11:33:14 11:34:27 11° 88° (E) 11:35:40 .
UNISAT 6 31 May 11:33:44 11:36:27 16° 269° (W) 11:39:10 437.425
DELFI C3 31 May 11:37:27 11:40:53 27° 293° (WNW) 11:44:18 145.870
PCSat 31 May 11:39:02 11:42:37 17° 328° (NNW) 11:46:12 145.827
TIGRISAT 31 May 11:40:04 11:42:33 15° 270° (W) 11:45:01 435.000
AISAT 31 May 11:46:55 11:50:33 24° 94° (E) 11:54:08 437.250
DANDE 31 May 11:47:31 11:53:29 55° 92° (E) 12:01:02 436.750
HUMSAT D 31 May 11:53:06 11:57:01 40° 290° (WNW) 12:00:57 437.325/437.525
QB50P1 31 May 11:59:46 12:03:43 38° 262° (W) 12:07:42 145.935-145.965
POPSAT HIP 1 31 May 11:59:47 12:03:45 39° 262° (W) 12:07:44 437.405
AIST 2 31 May 12:00:28 12:02:35 14° 110° (ESE) 12:04:43 435.215
Oscar 11 31 May 12:02:15 12:03:17 11° 303° (WNW) 12:04:20 145.826/435.025
QB50P2 31 May 12:03:47 12:07:39 33° 263° (W) 12:11:30 145.880/145.840
POLYITAN 1 31 May 12:06:19 12:10:08 33° 263° (W) 12:13:58 437.675
Oscar 19 31 May 12:14:15 12:18:31 26° 63° (ENE) 12:22:47 437.125/150
AO-85 31 May 12:15:21 12:19:11 22° 33° (NNE) 12:22:45 145.980
NANOSAT C BR1 31 May 12:16:06 12:19:44 28° 265° (W) 12:23:23 145.865
DX 1 31 May 12:25:44 12:29:58 47° 100° (E) 12:34:09 434.975-435.025
CUBEBUG 1 31 May 12:27:32 12:31:54 63° 102° (ESE) 12:36:11 437.445
BEESAT 2 31 May 12:29:20 12:32:51 29° 318° (NW) 12:36:23 435.950
SPROUT 31 May 12:34:52 12:38:38 30° 96° (E) 12:42:24 437.525
ESTCUBE 1 31 May 12:42:26 12:46:58 67° 286° (WNW) 12:51:28 437.505/2401.250
50 SAT 31 May 12:44:00 12:47:44 71° 285° (WNW) 12:51:27 437.505
TISAT 1 31 May 12:45:03 12:46:08 11° 88° (E) 12:47:14 437.305
VELOX 1 31 May 12:46:03 12:50:31 89° 274° (W) 12:54:55 145.980
BUGSAT 1 31 May 12:52:39 12:56:06 25° 265° (W) 12:59:32 437.445
DUCHIFAT 1 31 May 12:54:40 12:56:34 13° 271° (W) 12:58:28 145.980
CUSAT 1 31 May 12:57:03 13:03:26 34° 297° (WNW) 13:10:35 437.405
BEESAT 3 31 May 12:57:25 12:59:36 14° 328° (NNW) 13:01:49 437.485
JAS-2 31 May 12:59:21 13:06:56 77° 257° (WSW) 13:14:53 435.910
UKube-1 31 May 13:06:43 13:11:04 80° 286° (WNW) 13:15:23 .
ITAMSAT 1 31 May 13:07:02 13:09:57 15° 56° (NE) 13:12:52 435.822/435.867
Gurwin Techsat 1B 31 May 13:11:11 13:16:00 36° 65° (ENE) 13:20:49 435.225
AISAT 31 May 13:23:03 13:27:08 37° 292° (WNW) 13:31:11 437.250
AO-7 31 May 13:29:02 13:35:10 24° 47° (NE) 13:41:20 29.400- 29.500
DANDE 31 May 13:31:00 13:36:49 34° 297° (WNW) 13:43:50 436.750
AIST 2 31 May 13:36:24 13:40:32 72° 309° (NW) 13:44:41 435.215
Cosmos 2491 31 May 13:50:03 13:57:59 36° 67° (ENE) 14:05:49 435.465 / 435.565
Oscar 19 31 May 13:52:34 13:57:35 48° 260° (W) 14:02:38 437.125/150
SWISSCUBE 31 May 13:54:28 13:57:09 15° 89° (E) 13:59:48 437.505
AO-85 31 May 13:55:30 14:00:16 77° 236° (SW) 14:04:33 145.980
YUBILEINY 31 May 13:58:04 14:01:21 13° 70° (ENE) 14:04:38 435.215
DX 1 31 May 14:02:38 14:05:51 20° 298° (WNW) 14:09:03 434.975-435.025
ITUPSAT 1 31 May 14:02:52 14:05:47 16° 90° (E) 14:08:40 437.325
CUBEBUG 1 31 May 14:05:02 14:07:42 16° 300° (WNW) 14:10:22 437.445
SPROUT 31 May 14:10:54 14:14:32 28° 294° (WNW) 14:18:10 437.525
TISAT 1 31 May 14:18:09 14:22:20 77° 287° (WNW) 14:26:29 437.305
BEESAT 31 May 14:22:42 14:26:38 24° 94° (E) 14:30:31 436.000
VELOX 1 31 May 14:24:37 14:26:17 12° 303° (WNW) 14:27:58 145.980
RS-15 31 May 14:37:11 14:40:49 12° 90° (E) 14:44:29 29.354- 29.394
ITAMSAT 1 31 May 14:43:30 14:48:41 90° 278° (W) 14:53:56 435.822/435.867
UKube-1 31 May 14:45:31 14:46:22 11° 304° (NW) 14:47:14 .
JAS-2 31 May 14:48:27 14:53:10 17° 277° (W) 14:58:01 435.910
Gurwin Techsat 1B 31 May 14:51:07 14:55:56 35° 264° (W) 15:00:48 435.225
PCSat 31 May 15:12:38 15:14:39 12° 22° (NNE) 15:16:40 145.827
AIST 2 31 May 15:17:20 15:19:45 15° 329° (NNW) 15:22:11 435.215
AO-7 31 May 15:18:31 15:26:49 82° 69° (ENE) 15:35:12 29.400- 29.500
SWISSCUBE 31 May 15:30:40 15:35:27 73° 288° (WNW) 15:40:14 437.505
ITUPSAT 1 31 May 15:39:18 15:44:06 68° 287° (WNW) 15:48:52 437.325
KKS-1 31 May 15:43:37 15:46:55 20° 93° (E) 15:50:12 437.445
Cosmos 2491 31 May 15:46:45 15:55:16 59° 269° (W) 16:03:43 435.465 / 435.565
YUBILEINY 31 May 15:47:44 15:56:15 63° 92° (E) 16:04:47 435.215
Cosmos 2504 31 May 15:58:26 16:03:24 20° 77° (ENE) 16:08:33 435.465 / 435.565
BEESAT 31 May 16:00:03 16:04:35 43° 292° (WNW) 16:09:06 436.000
STARS 31 May 16:07:14 16:10:16 18° 92° (E) 16:13:19 437.465
HORYU 2 31 May 16:10:16 16:14:28 44° 70° (ENE) 16:18:41 437.375
ITAMSAT 1 31 May 16:26:40 16:28:54 13° 273° (W) 16:31:09 435.822/435.867
MOZHAYETS 4 31 May 16:30:49 16:35:19 48° 99° (E) 16:39:48
BRITE-PL 31 May 16:39:01 16:42:55 19° 59° (ENE) 16:46:46 437.365/2234.400
RS-15 31 May 16:39:15 16:50:10 57° 114° (ESE) 17:01:41 29.354- 29.394
NOAA 18 31 May 16:42:49 16:46:57 22° 59° (ENE) 16:51:04 137.9125
GOMX 1 31 May 16:44:18 16:44:47 10° 54° (NE) 16:45:16 467.674
CUTE-I 31 May 16:52:42 16:56:36 21° 59° (ENE) 17:00:32 437.470
PCSat 31 May 16:54:42 16:59:43 36° 46° (NE) 17:04:42 145.827
O/OREOS (USA 219) 31 May 17:06:04 17:09:07 18° 48° (NE) 17:12:09 437.305
SWISSCUBE 31 May 17:11:01 17:12:25 11° 306° (NW) 17:13:47 437.505
AO-7 31 May 17:14:07 17:20:31 24° 269° (W) 17:26:59 29.400- 29.500
KKS-1 31 May 17:19:29 17:23:43 45° 290° (WNW) 17:27:56 437.445
ITUPSAT 1 31 May 17:20:08 17:21:02 10° 306° (NW) 17:21:56 437.325
NOAA 15 31 May 17:24:54 17:30:02 52° 69° (ENE) 17:35:13 137.62
BEESAT 2 31 May 17:29:57 17:31:43 12° 29° (NNE) 17:33:28 435.950
STARS 31 May 17:42:41 17:46:55 49° 289° (WNW) 17:51:07 437.465
HO-68 31 May 17:44:45 17:48:37 16° 46° (NE) 17:52:28 435.675
YUBILEINY 31 May 17:45:58 17:53:37 34° 294° (WNW) 18:01:20 435.215
Cubesat XI-IV 31 May 17:46:12 17:51:22 55° 70° (ENE) 17:56:35 437.490
Cosmos 2491 31 May 17:47:36 17:50:03 11° 291° (WNW) 17:52:30 435.465 / 435.565
HORYU 2 31 May 17:47:57 17:51:15 20° 267° (W) 17:54:34 437.375
Cosmos 2504 31 May 17:48:18 17:55:37 84° 278° (W) 18:03:31 435.465 / 435.565
BEESAT 3 31 May 17:54:50 17:58:05 23° 40° (NE) 18:01:19 437.485
LilacSat-2 31 May 18:06:24 18:10:10 72° 75° (ENE) 18:13:57 437.200
CUBESAT XI-V 31 May 18:08:30 18:13:10 58° 100° (E) 18:17:47 437.345
MOZHAYETS 4 31 May 18:08:38 18:12:11 22° 297° (WNW) 18:15:43
BRITE-PL 31 May 18:15:02 18:20:45 80° 258° (WSW) 18:26:25 437.365/2234.400
GOMX 1 31 May 18:16:32 18:21:53 58° 72° (ENE) 18:27:00 467.674
NOAA 18 31 May 18:21:45 18:27:10 64° 258° (WSW) 18:32:36 137.9125
AUBIESAT-1 31 May 18:25:59 18:27:53 13° 57° (ENE) 18:29:44 437.475
CUTE-I 31 May 18:30:56 18:36:11 64° 258° (WSW) 18:41:30 437.470
M-CUBED/EXP-1 PRIME 31 May 18:35:43 18:38:37 20° 60° (ENE) 18:41:22 437.505
PCSat 31 May 18:38:06 18:43:14 44° 246° (WSW) 18:48:19 145.827
CINEMA 3 31 May 18:41:40 18:44:29 17° 62° (ENE) 18:47:16 145.822/145.860
DOVE 4 31 May 18:42:34 18:47:31 50° 71° (ENE) 18:52:13 437.250
O/OREOS (USA 219) 31 May 18:44:33 18:49:01 68° 247° (WSW) 18:53:27 437.305
RS-15 31 May 18:51:27 19:02:46 57° 320° (NW) 19:14:44 29.354- 29.394
SEEDS 31 May 18:51:43 18:53:41 13° 60° (ENE) 18:55:39 437.485
CANX-2 31 May 18:56:58 19:00:12 22° 64° (ENE) 19:03:27 2200.000
NOAA 15 31 May 19:05:52 19:10:07 24° 267° (W) 19:14:23 137.62
BEESAT 2 31 May 19:06:28 19:10:25 57° 50° (NE) 19:14:21 435.950
CUTE 1.7 + AOD 2 31 May 19:22:36 19:26:24 34° 68° (ENE) 19:30:14 437.475
AAUSAT CUBESAT 2 31 May 19:26:07 19:28:49 17° 62° (ENE) 19:31:32 437.432
Cubesat XI-IV 31 May 19:27:41 19:31:47 22° 268° (W) 19:35:57 437.490
COMPASS 1 31 May 19:27:43 19:30:52 21° 64° (ENE) 19:34:03 437.405
HO-68 31 May 19:27:58 19:34:58 62° 67° (ENE) 19:42:02 435.675
BEESAT 3 31 May 19:32:11 19:36:01 48° 239° (WSW) 19:39:48 437.485
STRAND 1 31 May 19:41:10 19:46:02 40° 98° (E) 19:50:52 437.568
Cosmos 2504 31 May 19:45:25 19:50:27 19° 303° (WNW) 19:55:43 435.465 / 435.565
CUBESAT XI-V 31 May 19:46:49 19:50:08 19° 299° (WNW) 19:53:25 437.345
Oscar 11 31 May 19:47:24 19:49:27 13° 59° (ENE) 19:51:31 145.826/435.025
GONETS M04 31 May 19:47:34 19:52:13 16° 73° (ENE) 19:56:51
AIST 1 31 May 19:50:32 19:53:20 17° 85° (E) 19:56:10
GOMX 1 31 May 19:56:04 20:00:15 22° 269° (W) 20:04:19 467.674
BRITE-PL 31 May 19:57:28 20:00:00 13° 275° (W) 20:02:33 437.365/2234.400
AUBIESAT-1 31 May 19:58:08 20:02:03 63° 252° (WSW) 20:05:42 437.475
CUSAT 1 31 May 20:06:28 20:10:05 14° 47° (NE) 20:13:29 437.405
M-CUBED/EXP-1 PRIME 31 May 20:09:16 20:13:01 38° 255° (WSW) 20:16:32 437.505
ZACube-1 31 May 20:09:53 20:12:47 19° 63° (ENE) 20:15:40 437.345
CINEMA 3 31 May 20:16:38 20:21:14 64° 259° (W) 20:25:39 145.822/145.860
AIST 2 31 May 20:17:06 20:20:41 27° 41° (NE) 20:24:14 435.215
DOVE 4 31 May 20:21:25 20:25:25 23° 267° (W) 20:29:18 437.250
Cosmos 2499 31 May 20:21:29 20:24:29 13° 71° (ENE) 20:27:34 435.465 / 435.565
SEEDS 31 May 20:24:39 20:28:49 74° 258° (WSW) 20:33:03 437.485
ISS 31 May 20:25:54 20:29:03 46° 146° (SE) 20:32:12 145.825
CANX-2 31 May 20:31:51 20:35:49 40° 262° (W) 20:39:50 2200.000
CUBEBUG 2 31 May 20:34:34 20:38:50 66° 74° (ENE) 20:43:01 437.445
DANDE 31 May 20:41:59 20:46:49 16° 49° (NE) 20:51:27 436.750
FUNcube-1 31 May 20:44:12 20:48:02 37° 70° (ENE) 20:51:52 145.935
BEESAT 2 31 May 20:45:18 20:47:52 17° 248° (WSW) 20:50:25 435.950
DELFI C3 31 May 20:51:22 20:54:39 25° 67° (ENE) 20:57:58 145.870
UWE-3 31 May 20:53:08 20:57:21 73° 73° (ENE) 21:01:31 435.000/436.395/437.385
PRISM 31 May 20:54:18 20:58:13 38° 98° (E) 21:02:05 437.425
CUTE 1.7 + AOD 2 31 May 20:58:49 21:02:18 25° 266° (W) 21:05:49 437.475
AAUSAT CUBESAT 2 31 May 20:59:53 21:03:55 52° 260° (W) 21:08:01 437.432
COMPASS 1 31 May 21:02:17 21:06:12 40° 262° (W) 21:10:10 437.405
RS-15 31 May 21:08:07 21:18:34 33° 353° (N) 21:29:22 29.354- 29.394
PHONESAT 2.4 31 May 21:08:38 21:10:55 19° 165° (SSE) 21:13:13 2401.200-2431.200
HUMSAT D 31 May 21:12:22 21:15:26 21° 65° (ENE) 21:18:31 437.325/437.525
HO-68 31 May 21:17:07 21:23:09 29° 267° (W) 21:29:15 435.675
STRAND 1 31 May 21:20:37 21:25:04 30° 296° (WNW) 21:29:31 437.568
Oscar 11 31 May 21:20:42 21:25:00 77° 259° (W) 21:29:20 145.826/435.025
AIST 1 31 May 21:26:14 21:30:31 51° 283° (WNW) 21:34:51
GONETS M04 31 May 21:38:41 21:47:24 73° 94° (E) 21:56:07
ZACube-1 31 May 21:44:44 21:48:47 47° 261° (W) 21:52:48 437.345
CUSAT 1 31 May 21:46:46 21:54:17 56° 72° (ENE) 22:00:24 437.405
CUBEBUG 1 31 May 21:54:41 21:54:45 10° 56° (NE) 21:54:49 437.445
AIST 2 31 May 21:55:22 21:59:20 44° 240° (WSW) 22:03:16 435.215
ISS 31 May 22:02:22 22:05:32 44° 345° (NNW) 22:08:42 145.825
Cosmos 2499 31 May 22:08:30 22:15:49 68° 93° (E) 22:23:45 435.465 / 435.565
ESTCUBE 1 31 May 22:09:15 22:12:31 20° 62° (ENE) 22:15:48 437.505/2401.250
VELOX 1 31 May 22:11:48 22:14:19 15° 59° (ENE) 22:16:51 145.980
CUBEBUG 2 31 May 22:13:57 22:15:54 13° 271° (W) 22:17:50 437.445
FUNcube-1 31 May 22:21:11 22:24:25 22° 267° (W) 22:27:39 145.935
DANDE 31 May 22:23:23 22:31:43 58° 73° (ENE) 22:39:01 436.750
ANTELSAT 31 May 22:25:15 22:28:41 22° 94° (E) 22:32:08 437.575/2403.000
DELFI C3 31 May 22:25:55 22:29:26 30° 264° (W) 22:32:59 145.870
UKube-1 31 May 22:29:56 22:32:28 15° 60° (ENE) 22:35:01 .
PRISM 31 May 22:30:02 22:33:19 23° 296° (WNW) 22:36:35 437.425
UWE-3 31 May 22:32:54 22:34:19 11° 272° (W) 22:35:43 435.000/436.395/437.385
PHONESAT 2.4 31 May 22:44:27 22:47:09 26° 181° (S) 22:49:49 2401.200-2431.200
SO-50 31 May 22:45:56 22:49:41 22° 113° (ESE) 22:53:25 436.795
AISAT 31 May 22:46:48 22:50:45 32° 67° (ENE) 22:54:43 437.250
HUMSAT D 31 May 22:47:01 22:50:50 39° 262° (W) 22:54:42 437.325/437.525
UNISAT 6 31 May 23:20:11 23:24:32 81° 102° (ESE) 23:28:56 437.425
DX 1 31 May 23:23:39 23:27:57 59° 72° (ENE) 23:32:17 434.975-435.025
RS-15 31 May 23:23:51 23:35:14 42° 27° (NNE) 23:46:45 29.354- 29.394
50 SAT 31 May 23:24:35 23:28:13 78° 75° (ENE) 23:31:54 437.505
CUBEBUG 1 31 May 23:25:49 23:30:15 74° 74° (ENE) 23:34:41 437.445
TIGRISAT 31 May 23:26:03 23:30:24 88° 110° (ESE) 23:34:47 435.000
CUSAT 1 31 May 23:29:31 23:35:55 31° 276° (W) 23:41:18 437.405
SPROUT 31 May 23:31:02 23:34:53 34° 68° (ENE) 23:38:46 437.525
GONETS M04 31 May 23:37:43 23:45:04 29° 297° (WNW) 23:52:28
TISAT 1 31 May 23:39:10 23:41:17 14° 60° (ENE) 23:43:23 437.305
ISS 31 May 23:39:25 23:42:26 34° 5° (N) 23:45:28 145.825
QB50P1 31 May 23:41:39 23:45:13 26° 95° (E) 23:48:45 145.935-145.965
POPSAT HIP 1 31 May 23:41:45 23:45:17 26° 95° (E) 23:48:49 437.405
ESTCUBE 1 31 May 23:44:33 23:48:58 52° 260° (W) 23:53:26 437.505/2401.250
QB50P2 31 May 23:45:36 23:49:21 30° 96° (E) 23:53:04 145.880/145.840
VELOX 1 31 May 23:45:47 23:50:15 72° 258° (WSW) 23:54:43 145.980
POLYITAN 1 31 May 23:48:05 23:51:50 31° 96° (E) 23:55:34 437.675
NANOSAT C BR1 31 May 23:57:01 00:00:55 36° 97° (E) 00:04:46 145.865
ANTELSAT 01 Jun 00:01:31 00:05:33 39° 290° (WNW) 00:09:38 437.575/2403.000
Cosmos 2499 01 Jun 00:03:26 00:09:43 28° 297° (WNW) 00:16:26 435.465 / 435.565
UKube-1 01 Jun 00:03:43 00:08:01 66° 257° (WSW) 00:12:22 .
DANDE 01 Jun 00:06:48 00:14:11 37° 274° (W) 00:20:47 436.750
JAS-2 01 Jun 00:08:46 00:12:57 16° 82° (E) 00:16:53 435.910
PHONESAT 2.4 01 Jun 00:21:17 00:23:20 16° 198° (SSW) 00:25:22 2401.200-2431.200
AISAT 01 Jun 00:23:18 00:27:13 30° 264° (W) 00:31:09 437.250
SO-50 01 Jun 00:24:56 00:29:48 61° 311° (NW) 00:34:39 436.795
BUGSAT 1 01 Jun 00:30:53 00:34:38 36° 98° (E) 00:38:20 437.445
DUCHIFAT 1 01 Jun 00:33:02 00:37:14 83° 103° (ESE) 00:41:25 145.980
UNISAT 6 01 Jun 00:58:46 01:00:40 13° 301° (WNW) 01:02:35 437.425
DX 1 01 Jun 01:01:53 01:04:31 16° 269° (W) 01:07:11 434.975-435.025
SWISSCUBE 01 Jun 01:03:16 01:07:04 24° 63° (ENE) 01:10:53 437.505
TIGRISAT 01 Jun 01:04:53 01:06:27 12° 302° (WNW) 01:08:02 435.000
CUBEBUG 1 01 Jun 01:05:05 01:07:03 13° 272° (W) 01:09:01 437.445
SPROUT 01 Jun 01:07:19 01:10:54 25° 266° (W) 01:14:29 437.525
ITUPSAT 1 01 Jun 01:12:00 01:15:55 26° 63° (ENE) 01:19:52 437.325
TISAT 1 01 Jun 01:12:11 01:16:24 72° 258° (WSW) 01:20:37 437.305
ISS 01 Jun 01:15:54 01:19:11 79° 27° (NNE) 01:22:27 145.825
QB50P1 01 Jun 01:17:17 01:21:01 32° 293° (WNW) 01:24:44 145.935-145.965
POPSAT HIP 1 01 Jun 01:17:22 01:21:07 32° 292° (WNW) 01:24:50 437.405
QB50P2 01 Jun 01:21:30 01:25:05 28° 294° (WNW) 01:28:40 145.880/145.840
POLYITAN 1 01 Jun 01:24:00 01:27:34 27° 294° (WNW) 01:31:07 437.675
Gurwin Techsat 1B 01 Jun 01:27:08 01:28:07 10° 85° (E) 01:29:05 435.225
BEESAT 01 Jun 01:31:38 01:36:02 39° 67° (ENE) 01:40:27 436.000
NANOSAT C BR1 01 Jun 01:33:08 01:36:29 24° 295° (WNW) 01:39:49 145.865
RS-15 01 Jun 01:37:03 01:49:25 90° 238° (WSW) 02:01:46 29.354- 29.394
Cosmos 2504 01 Jun 01:46:38 01:48:24 11° 47° (NE) 01:50:10 435.465 / 435.565
JAS-2 01 Jun 01:51:51 01:59:18 82° 103° (ESE) 02:05:51 435.910
YUBILEINY 01 Jun 01:54:16 02:02:14 37° 67° (ENE) 02:10:10 435.215
Oscar 19 01 Jun 02:01:00 02:06:00 48° 99° (E) 02:10:57 437.125/150
BUGSAT 1 01 Jun 02:06:42 02:09:49 22° 295° (WNW) 02:12:54 437.445
SO-50 01 Jun 02:08:06 02:11:16 17° 332° (NNW) 02:14:23 436.795
DUCHIFAT 1 01 Jun 02:10:46 02:12:19 12° 302° (WNW) 02:13:51 145.980
SWISSCUBE 01 Jun 02:40:04 02:44:37 45° 261° (W) 02:49:13 437.505
KKS-1 01 Jun 02:44:12 02:47:58 27° 65° (ENE) 02:51:44 437.445
ITUPSAT 1 01 Jun 02:49:03 02:53:34 42° 262° (W) 02:58:07 437.325
ISS 01 Jun 02:52:55 02:55:19 19° 222° (SW) 02:57:42 145.825
ITAMSAT 1 01 Jun 02:53:54 02:58:14 26° 94° (E) 03:02:33 435.822/435.867
Cosmos 2491 01 Jun 02:55:18 03:03:05 37° 84° (E) 03:10:51 435.465 / 435.565
Gurwin Techsat 1B 01 Jun 03:03:37 03:08:58 75° 103° (ESE) 03:14:17 435.225
STARS 01 Jun 03:06:25 03:09:58 24° 64° (ENE) 03:13:32 437.465
BEESAT 01 Jun 03:09:54 03:13:55 27° 265° (W) 03:17:59 436.000
AO-7 01 Jun 03:17:55 03:24:07 22° 90° (E) 03:30:16 29.400- 29.500
MOZHAYETS 4 01 Jun 03:35:13 03:39:43 63° 73° (ENE) 03:44:16
Cosmos 2504 01 Jun 03:36:15 03:44:21 46° 72° (ENE) 03:52:44 435.465 / 435.565
JAS-2 01 Jun 03:37:46 03:43:25 24° 306° (NW) 03:48:40 435.910
CUBESAT XI-V 01 Jun 03:40:51 03:42:20 11° 56° (NE) 03:43:49 437.345
Oscar 19 01 Jun 03:40:51 03:45:04 26° 298° (WNW) 03:49:15 437.125/150
RS-15 01 Jun 03:50:42 04:00:24 29° 258° (WSW) 04:10:06 29.354- 29.394
YUBILEINY 01 Jun 03:50:56 03:59:27 58° 269° (W) 04:07:59 435.215
AO-85 01 Jun 04:12:27 04:16:34 22° 111° (ESE) 04:20:37 145.980
KKS-1 01 Jun 04:20:20 04:24:25 35° 263° (W) 04:28:31 437.445
ITAMSAT 1 01 Jun 04:32:55 04:37:55 47° 292° (WNW) 04:42:54 435.822/435.867
STARS 01 Jun 04:42:02 04:46:09 38° 262° (W) 04:50:17 437.465
Gurwin Techsat 1B 01 Jun 04:44:45 04:48:20 19° 302° (WNW) 04:51:55 435.225
Cosmos 2491 01 Jun 04:50:54 04:59:33 57° 286° (WNW) 05:08:13 435.465 / 435.565
AO-7 01 Jun 05:09:29 05:17:54 88° 294° (WNW) 05:26:18 29.400- 29.500
CUBESAT XI-V 01 Jun 05:14:13 05:18:54 77° 74° (ENE) 05:23:38 437.345
MOZHAYETS 4 01 Jun 05:14:36 05:17:19 16° 271° (W) 05:20:04
STRAND 1 01 Jun 05:24:19 05:26:31 13° 54° (NE) 05:28:43 437.568
Cosmos 2504 01 Jun 05:29:47 05:37:46 47° 272° (W) 05:46:04 435.465 / 435.565
SO-50 01 Jun 05:34:04 05:36:30 14° 22° (NNE) 05:38:54 436.795
HORYU 2 01 Jun 05:34:25 05:38:50 60° 102° (ESE) 05:43:13 437.375
NOAA 15 01 Jun 05:38:29 05:41:31 15° 88° (E) 05:44:31 137.62
AO-85 01 Jun 05:51:13 05:56:40 70° 310° (NW) 06:01:56 145.980
YUBILEINY 01 Jun 05:51:47 05:54:13 11° 291° (WNW) 05:56:38 435.215
Cubesat XI-IV 01 Jun 06:01:29 06:05:01 17° 90° (E) 06:08:31 437.490
GOMX 1 01 Jun 06:18:14 06:19:50 12° 85° (E) 06:21:26 467.674
BRITE-PL 01 Jun 06:18:17 06:22:31 27° 92° (E) 06:26:27 437.365/2234.400
